Weather History for PHNG - August, 2013

Change the Weather History Date:

Saturday, August 10, 2013

  Actual Average Record
Temperature  
Mean Temperature 78 °F -  
Max Temperature 84 °F 81 °F 88 °F (2012)
Min Temperature 73 °F 73 °F 73 °F (1999)
Cooling Degree Days 14    
Growing Degree Days 28 (Base 50)    
Moisture  
Dew Point 72 °F    
Average Humidity 86    
Maximum Humidity 99    
Minimum Humidity 65    
Precipitation  
Precipitation 1.18 in - - ()
Sea Level Pressure  
Sea Level Pressure 30.02 in    
Wind  
Wind Speed 8 mph (ENE)    
Max Wind Speed 15 mph    
Max Gust Speed 24 mph    
Visibility 8 miles    
Events Rain    
Averages and records for this station are not official NWS values.
T = Trace of Precipitation, MM = Missing Value Source: NWS Daily Summary

Daily Weather History Graph

Daily Weather History Graph

Search for Another Location

Airport or City:

Trip Planner

Search our weather history database for the weather conditions in past years. The results will help you decide how hot, cold, wet, or windy it might be!

Date:

Astronomy

Aug. 10, 2013 Rise Set
Actual Time 6:07 AM HST 7:04 PM HST
Civil Twilight 5:44 AM HST 7:27 PM HST
Nautical Twilight 5:16 AM HST 7:55 PM HST
Astronomical Twilight 4:48 AM HST 8:23 PM HST
Moon 9:28 AM HST (8/10) 9:33 PM HST (8/10)
Length of Visible Light 13h 43m
Length of Day
12h 56m
Waxing Crescent, 15% of the Moon is Illuminated
Aug 10
Waxing Crescent
Aug 14
First Quarter
Aug 20
Full
Aug 27
Last Quarter
Sep 5
New

Hourly Weather History & Observations

Time (HST) Temp. Heat Index Dew Point Humidity Pressure Visibility Wind Dir Wind Speed Gust Speed Precip Events Conditions
12:57 AM 73.6 °F - 70.0 °F 88% 30.03 in 10.0 mi Calm Calm - N/A Rain Rain
1:57 AM 73.6 °F - 71.1 °F 92% 30.03 in 10.0 mi Variable 6.9 mph - N/A Rain Rain
2:57 AM 73.9 °F - 70.0 °F 87% 30.01 in 5.0 mi ENE 8.1 mph - 0.26 in Rain Heavy Rain
3:04 AM 73.4 °F - 71.6 °F 94% 30.02 in 4.0 mi ENE 6.9 mph 16.1 mph 0.01 in Rain Rain
3:16 AM 73.4 °F - 71.6 °F 94% 30.02 in 4.0 mi East 8.1 mph - 0.02 in Rain Light Rain
3:57 AM 73.4 °F - 71.1 °F 92% 30.01 in 5.0 mi ENE 9.2 mph 19.6 mph 0.06 in Rain Heavy Rain
4:16 AM 73.4 °F - 71.6 °F 94% 30.02 in 5.0 mi ENE 10.4 mph 19.6 mph 0.02 in Rain Light Rain
4:57 AM 73.4 °F - 71.1 °F 92% 30.00 in 5.0 mi ENE 12.7 mph 24.2 mph 0.06 in Rain Light Rain
5:08 AM 73.4 °F - 71.6 °F 94% 30.02 in 5.0 mi ENE 10.4 mph 19.6 mph 0.01 in Rain Light Rain
5:57 AM 73.9 °F - 71.1 °F 91% 30.01 in 5.0 mi ENE 8.1 mph - 0.06 in Rain Rain
6:57 AM 73.9 °F - 71.1 °F 91% 30.03 in 5.0 mi ENE 13.8 mph 20.7 mph 0.23 in Rain Heavy Rain
7:57 AM 73.9 °F - 71.1 °F 91% 30.04 in 5.0 mi ENE 11.5 mph 24.2 mph 0.13 in Rain Rain
9:01 AM 75.2 °F - 71.6 °F 89% 30.05 in 6.2 mi NE 15.0 mph 20.7 mph 0.02 in Rain Heavy Rain
9:57 AM 75.2 °F - 72.0 °F 90% 30.04 in 10.0 mi NE 10.4 mph - 0.25 in Rain Light Rain
10:57 AM 80.6 °F 85.2 °F 73.0 °F 78% 30.04 in 10.0 mi NE 10.4 mph 18.4 mph 0.03 in Rain Light Rain
11:57 AM 82.4 °F 89.2 °F 75.0 °F 78% 30.04 in 10.0 mi NE 6.9 mph - 0.02 in Rain Light Rain
12:57 PM 82.4 °F 88.4 °F 73.9 °F 75% 30.02 in 10.0 mi ENE 6.9 mph - 0.00 in   Mostly Cloudy
1:57 PM 80.6 °F 86.0 °F 75.0 °F 83% 30.00 in 10.0 mi East 8.1 mph 16.1 mph N/A   Mostly Cloudy
2:57 PM 80.6 °F 84.4 °F 71.1 °F 73% 29.99 in 10.0 mi ENE 8.1 mph - 0.00 in   Mostly Cloudy
3:57 PM 82.4 °F 86.7 °F 71.1 °F 68% 29.98 in 10.0 mi ENE 10.4 mph 16.1 mph N/A   Mostly Cloudy
4:57 PM 84.2 °F 89.3 °F 71.1 °F 65% 29.98 in 10.0 mi ENE 10.4 mph 18.4 mph N/A   Scattered Clouds
5:57 PM 84.2 °F 89.9 °F 72.0 °F 67% 29.99 in 10.0 mi ENE 10.4 mph - 0.00 in   Scattered Clouds
6:57 PM 84.2 °F 89.9 °F 72.0 °F 67% 30.01 in 10.0 mi ENE 6.9 mph - 0.00 in   Scattered Clouds
7:57 PM 78.8 °F - 73.0 °F 82% 30.03 in 10.0 mi ENE 8.1 mph - 0.00 in   Scattered Clouds
8:57 PM 75.2 °F - 73.9 °F 96% 30.04 in 10.0 mi ENE 11.5 mph 20.7 mph 0.04 in Rain Rain
9:57 PM 75.2 °F - 73.9 °F 96% 30.06 in 10.0 mi ENE 8.1 mph - 0.02 in Rain Light Rain
10:04 PM 75.2 °F - 73.4 °F 94% 30.07 in 6.2 mi ENE 12.7 mph 23.0 mph 0.00 in Rain Light Rain
10:57 PM 75.2 °F - 73.0 °F 93% 30.05 in 10.0 mi ENE 9.2 mph 17.3 mph 0.01 in   Overcast
11:57 PM 73.4 °F - 73.0 °F 99% 30.04 in 10.0 mi ENE 9.2 mph - 0.01 in   Overcast